This demonstration page uses our WeatherBlox Daily Observations layout. Learn more.

Left ArrowRight Arrow

39.08367, -84.50855

Hourly Observations for May 2, 2019

Temp ( °F °C ) Dew Point ( °F °C ) Humidity (%) Winds ( mph kmh ) Pressure ( in mb ) Visibility ( mi km ) Precip ( " mm )
12:00 am 00:00 Cloudy with Rain 65 18.3 64 17.8 97 97 Calm 30.1 1019 4 6.43736 0.01 0.254
12:45 am 00:45 Partly Cloudy with Mist and Fog 64 17.8 63 17.2 96 96 W 3 6 30.1 1019 1.75 2.816345 0.01 0.254
12:53 am 00:53 Mostly Cloudy with Mist and Fog 65 18.3 64 17.8 97 97 Calm 30.09 1019 2.5 4.02335 0.01 0.254
1:00 am 01:00 Mostly Cloudy with Mist and Fog 65 18.3 64 17.8 97 97 E 5 7 30.09 1019 5 8.0467 0 0
1:21 am 01:21 Cloudy with Mist and Fog 64 17.8 64 17.8 100 100 Calm 30.09 1019 3 4.82802 0 0
1:37 am 01:37 Cloudy with Mist and Fog 64 17.8 64 17.8 100 100 Calm 30.09 1019 2 3.21868 0 0
1:49 am 01:49 Cloudy with Mist and Fog 64 18 64 18 100 100 SSE 3 6 30.09 1019 3 4.82802 0 0
1:53 am 01:53 Cloudy with Mist and Fog 64 17.8 64 17.8 100 100 Calm 30.09 1019 3 4.82802 0 0
2:35 am 02:35 Cloudy with Mist and Fog 65 18.3 64 17.8 97 97 Calm 30.09 1019 2.5 4.02335 0 0
2:50 am 02:50 Cloudy with Mist and Fog 64 18 64 18 100 100 Calm 30.09 1019 3 4.82802 0 0
2:53 am 02:53 Cloudy with Mist and Fog 64 17.8 63 17.2 96 96 Calm 30.09 1019 2.5 4.02335 0 0
3:03 am 03:03 Cloudy with Mist and Fog 64 17.8 63 17.2 96 96 SSW 3 6 30.09 1019 1.75 2.816345 0 0
3:35 am 03:35 Cloudy with Mist and Fog 64 17.8 64 17.8 100 100 Calm 30.09 1019 2.5 4.02335 0 0
3:45 am 03:45 Cloudy with Mist and Fog 64 17.8 63 17.2 96 96 Calm 30.09 1019 1.25 2.011675 0 0
3:53 am 03:53 Cloudy with Mist and Fog 64 17.8 63 17.2 96 96 Calm 30.08 1019 0.75 1.207005 0 0
4:04 am 04:04 Cloudy with Fog 63 17.2 63 17.2 100 100 SSW 3 6 30.09 1019 0.25 0.402335 0 0
4:12 am 04:12 Cloudy with Mist and Fog 63 17.2 62 16.7 97 97 SSW 5 7 30.1 1019 1 1.60934 0 0
4:16 am 04:16 Cloudy with Mist and Fog 63 17.2 63 17.2 100 100 S 3 6 30.1 1019 3 4.82802 0 0
4:36 am 04:36 Cloudy with Mist and Fog 64 17.8 63 17.2 96 96 SW 3 6 30.11 1020 2.5 4.02335 0 0
4:53 am 04:53 Cloudy with Mist and Fog 64 17.8 63 17.2 96 96 SW 5 7 30.11 1020 2 3.21868 0 0
5:01 am 05:01 Cloudy with Mist and Fog 64 17.8 63 17.2 96 96 SSW 3 6 30.11 1020 1.75 2.816345 0 0
5:17 am 05:17 Cloudy with Mist and Fog 63 17.2 63 17.2 100 100 S 3 6 30.1 1019 0.75 1.207005 0 0
5:37 am 05:37 Mostly Cloudy with Fog 63 17.2 63 17.2 100 100 Calm 30.1 1019 0.5 0.80467 0 0
5:53 am 05:53 Mostly Cloudy with Mist and Fog 63 17.2 63 17.2 100 100 S 3 6 30.1 1019 0.75 1.207005 0 0
6:12 am 06:12 Mostly Cloudy with Fog 63 17.2 63 17.2 100 100 S 3 6 30.1 1019 0.5 0.80467 0 0
6:26 am 06:26 Mostly Cloudy with Fog 63 17.2 63 17.2 100 100 Calm 30.11 1020 0.25 0.402335 0 0
6:53 am 06:53 Mostly Cloudy with Fog 63 17.2 62 16.7 97 97 Calm 30.11 1020 0.5 0.80467 0 0
7:46 am 07:46 Mostly Cloudy with Fog 63 17.2 63 17.2 100 100 Calm 30.12 1020 0.5 0.80467 0 0
7:53 am 07:53 Mostly Cloudy with Fog 63 17.2 63 17.2 100 100 S 3 6 30.12 1020 0.5 0.80467 0 0
8:53 am 08:53 Cloudy with Patchy Fog 63 17.2 63 17.2 100 100 Calm 30.13 1020 1 1.60934 0 0
9:53 am 09:53 Cloudy with Mist and Fog 66 18.9 63 17.2 90 90 Calm 30.12 1020 5 8.0467 0 0
10:53 am 10:53 Mostly Cloudy 70 21.1 65 18.3 84 84 SSE 6 9 30.14 1021 10 16.0934 0 0
11:53 am 11:53 Partly Cloudy 74 23.3 66 18.9 76 76 S 8 13 30.12 1020 10 16.0934 0 0
12:53 pm 12:53 Partly Cloudy 76 24.4 66 18.9 72 72 S 8 13 30.1 1019 10 16.0934 0 0
1:53 pm 13:53 Partly Cloudy 77 25 64 17.8 64 64 S 13 20 30.06 1018 10 16.0934 0 0
2:02 pm 14:02 Mostly Cloudy with Nearby Thunderstorms 74 23.3 60 15.6 62 62 WNW 22 35 30.09 1019 10 16.0934 0 0
2:09 pm 14:09 Mostly Cloudy with Thunderstorms 71 21.7 58 14.4 63 63 W 17 28 30.11 1019 10 16.0934 0 0.0254
2:53 pm 14:53 Cloudy with Nearby Thunderstorms 66 18.9 62 16.7 87 87 Calm 30.11 1020 7 11.26538 0.04 1.016
3:13 pm 15:13 Mostly Sunny 70 21.1 62 16.7 76 76 Calm 30.1 1019 10 16.0934 0 0.0254
3:53 pm 15:53 Cloudy 70 21.1 63 17.2 79 79 SSE 3 6 30.09 1019 10 16.0934 0 0.0254
4:53 pm 16:53 Sunny 73 22.8 63 17.2 71 71 Calm 30.06 1018 10 16.0934 0 0
5:53 pm 17:53 Sunny 73 22.8 63 17.2 71 71 S 5 7 30.07 1018 10 16.0934 0 0
6:53 pm 18:53 Mostly Sunny 73 22.8 65 18.3 76 76 Calm 30.05 1018 10 16.0934 0 0
7:53 pm 19:53 Mostly Cloudy 71 21.7 64 17.8 79 79 SSE 7 11 30.05 1018 10 16.0934 0 0
8:53 pm 20:53 Mostly Clear 67 19.4 63 17.2 87 87 SW 3 6 30.04 1017 10 16.0934 0 0
9:53 pm 21:53 Clear 66 18.9 63 17.2 90 90 Calm 30.05 1018 10 16.0934 0 0
10:53 pm 22:53 Mostly Clear 64 17.8 62 16.7 93 93 WSW 5 7 30.04 1017 10 16.0934 0 0
11:53 pm 23:53 Clear 64 17.8 63 17.2 96 96 Calm 30.03 1017 8 12.87472 0 0

Powered by AerisWeather